Regional Weather Roundup
Issued by NWS

Home | Current Version | Previous Version | Text Only | Print | Product List | Glossary On
Versions: 1 2 3 4 5 6 7 8 9 10 11 12 13 14 15 16 17 18 19 20 21 22 23 24 25 26 27 28 29 30 31 32 33 34 35 36 37 38 39 40 41 42 43 44 45 46 47 48 49 50
000
ASUS43 KLOT 200010
RWRIL

ILLINOIS REGIONAL WEATHER ROUNDUP
NATIONAL WEATHER SERVICE CHICAGO/ROMEOVILLE IL
700 PM CDT SAT APR 19 2014

NOTE: "FAIR" INDICATES FEW OR NO CLOUDS BELOW 12,000 FEET WITH NO
SIGNIFICANT WEATHER AND/OR OBSTRUCTIONS TO VISIBILITY.

* THESE STATIONS ARE NOT UNDER NWS QUALITY CONTROL. THEY ALSO MAY NOT
  REPORT WEATHER SUCH AS PRECIPITATION OR FOG.

ILZ001-002-007-009-015-016-024-200100-
NORTHWEST ILLINOIS

CITY           SKY/WX    TMP DP  RH WIND       PRES   REMARKS
MOLINE         MOCLDY    70  33  25 S12G21    30.13S
6HR MIN TEMP:  69; 6HR MAX TEMP:  74;

STERLING*      PTCLDY    68  34  28 S5        30.16S
SAVANNA*       PTCLDY    69  30  22 S13       30.14S
$$

ILZ003-004-008-010-011-017-018-200100-
NORTH CENTRAL ILLINOIS

CITY           SKY/WX    TMP DP  RH WIND       PRES   REMARKS
ROCKFORD       CLOUDY    66  32  28 S15       30.19F
6HR MIN TEMP:  63; 6HR MAX TEMP:  69;

FREEPORT*      MOCLDY    65  32  28 SE10      30.18F
ROCHELLE*      MOCLDY    66  35  30 SE10      30.18F
DE KALB*       MOCLDY    63  34  33 SE13      30.20F
PERU*          PTCLDY    69  33  26 S8        30.18S
$$

ILZ005-006-012>014-019>023-200100-
NORTHEAST ILLINOIS

CITY           SKY/WX    TMP DP  RH WIND       PRES   REMARKS
CHICAGO-OHARE  CLOUDY    60  35  39 E10       30.22S
6HR MIN TEMP:  58; 6HR MAX TEMP:  66;

CHICAGO-MIDWAY CLOUDY    59  37  44 E9        30.23S
6HR MIN TEMP:  57; 6HR MAX TEMP:  64;

AURORA         MOCLDY    66  34  30 SE12      30.20F
6HR MIN TEMP:  63; 6HR MAX TEMP:  69;

LANSING*       MOCLDY    64  33  32 SE7       30.23S
WAUKEGAN       MOCLDY    48  34  58 E3        30.23F
6HR MIN TEMP:  45; 6HR MAX TEMP:  52;

DUPAGE AIRPORT MOCLDY    66  35  31 SE12      30.20F
6HR MIN TEMP:  62; 6HR MAX TEMP:  69;

KANKAKEE*      PTCLDY    64  38  38 SE7       30.22F
WHEELING       MOCLDY    55  36  48 E5        30.23F
6HR MIN TEMP:  54; 6HR MAX TEMP:  63;

MORRIS*        PTCLDY    68  27  21 SE12      30.20F
ROMEOVILLE*    PTCLDY    64  35  34 SE10      30.21S
NORTHERLY ISL    N/A     48  37  65 CALM        N/A
$$

LMZ740>746-200100-
SOUTHERN LAKE MICHIGAN

STATION/POSITION SKY/WX   TEMP    WIND        PRES    VSBY  WAVE
                          AIR SEA DIR/SP/G                  HT/PER
                          (F)     (DEG/KT/KT) (MB)    (MI)  (FT/S)
WAUKEGAN HARBOR            44        CALM     1025.1S
HARRISON CRIB              45     130/  4/  5   N/A
BURNHAM HARBOR             47      70/  2/  5   N/A
CALUMET HARBOR             46      30/  2/  4 1024.5R
MICHIGAN CITY              63     110/  9/ 12   N/A
$$

ILZ025>027-034>036-040-047-049-050-058-095>099-200100-
WEST-CENTRAL ILLINOIS

CITY           SKY/WX    TMP DP  RH WIND       PRES   REMARKS
QUINCY         PTCLDY    73  30  20 S10       30.13F
GALESBURG*     MOCLDY    70  39  32 SE9G16    30.15F
MACOMB*        MOCLDY    72  35  25 SE16G22   30.17S
JACKSONVILLE*  MOCLDY    70  40  33 SE9       30.18S
PITTSFIELD*    MOCLDY    73  34  24 SE13      30.16S
$$

ILZ028>032-037-038-041>044-048-051>054-059>061-200100-
CENTRAL ILLINOIS

CITY           SKY/WX    TMP DP  RH WIND       PRES   REMARKS
PONTIAC        MOCLDY    70  36  28 SE10      30.20S
BLOOMINGTON    MOCLDY    65  34  31 SE8       30.20F
DECATUR        MOCLDY    68  34  28 S5        30.20S
PEORIA         MOCLDY    71  33  24 SE9       30.18S
6HR MIN TEMP:  69; 6HR MAX TEMP:  73;

LACON*         PTCLDY    68  34  28 SE6       30.18R
LINCOLN*       MOCLDY    71  34  26 S7        30.17S
SPRINGFIELD    MOCLDY    71  39  31 SE7       30.18F
6HR MIN TEMP:  70; 6HR MAX TEMP:  75;

TAYLORVILLE    MOCLDY    68  41  37 SE5       30.19F
$$

ILZ033-039-045-046-055>057-062-063-200100-
EAST-CENTRAL ILLINOIS

CITY           SKY/WX    TMP DP  RH WIND       PRES   REMARKS
CHAMPAIGN      PTCLDY    67  36  31 E8        30.21S
RANTOUL*       PTCLDY    68  35  29 CALM      30.22S
MATTOON        PTCLDY    67  40  37 S5        30.20F
PARIS*         CLEAR     67  41  38 E3        30.22S
$$

ILZ079-100>102-200100-
SOUTHWEST ILLINOIS

CITY           SKY/WX    TMP DP  RH WIND       PRES   REMARKS
ALTON          CLEAR     68  39  34 SE12      30.18F
BELLEVILLE     PTCLDY    70  45  40 E8        30.17F
CAHOKIA*       MOCLDY    71  44  37 SE8       30.16F
SPARTA*        PTCLDY    68  46  45 E7        30.18F
$$

ILZ064>066-069>071-074>076-080>082-084>086-088>090-092>094-200100-
SOUTH-CENTRAL ILLINOIS

CITY           SKY/WX    TMP DP  RH WIND       PRES   REMARKS
CARBONDALE     PTCLDY    69  42  37 E6        30.18R
6HR MIN TEMP:  69; 6HR MAX TEMP:  76;

CAIRO*         PTCLDY    74  40  28 E6        30.16S
MARION         CLEAR     68  46  45 N5        30.18F
MT. VERNON     PTCLDY   N/A N/A N/A E6        30.20S
CENTRALIA*       N/A     69  41  36 CALM      30.20S
SALEM*         PTCLDY    72  43  35 E3        30.20S
METROPOLIS*    CLEAR     72  34  25 NE3       30.16S
$$

ILZ067-068-072-073-078-083-087-091-200100-
SOUTHEAST ILLINOIS

CITY           SKY/WX    TMP DP  RH WIND       PRES   REMARKS
FAIRFIELD*     CLEAR     70  39  32 CALM      30.19S
HARRISBURG*    CLEAR     70  48  45 E3        30.19F
ROBINSON*      CLEAR     68  44  42 E7        30.21S
CARMI*         CLEAR     70  48  44 NE3       30.18F
$$

ABBREVIATIONS USED IN REMARKS
   TC - TEMPERATURE IN CELSIUS
  WCI - WIND CHILL INDEX
   HX - HEAT INDEX
  VSB - VISIBILITY
$$




USA.gov is the U.S. government's official web portal to all federal, state and local government web resources and services.